Change the Weather History Date:

Tuesday, February 19, 2013

  Actual Average (KGEV) Record (KGEV)
Temperature  
Mean Temperature 39 °F -  
Max Temperature 45 °F 47 °F 61 °F (1971)
Min Temperature 33 °F 27 °F -4 °F (2015)
Degree Days  
Heating Degree Days 26    
Moisture  
Dew Point 27 °F    
Average Humidity 63    
Maximum Humidity 100    
Minimum Humidity 30    
Precipitation  
Precipitation 0.07 in - - ()
Sea Level Pressure  
Sea Level Pressure 29.92 in    
Wind  
Wind Speed 10 mph (West)    
Max Wind Speed 32 mph    
Max Gust Speed 44 mph    
Visibility 9 miles    
Events Rain , Snow    
Averages and records for this station are not official NWS values.
T = Trace of Precipitation, MM = Missing Value Source: NWS Daily Summary

Daily Weather History Graph

Daily Weather History Graph

Search for Another Location

Airport or City:

Trip Planner

Search our weather history database for the weather conditions in past years. The results will help you decide how hot, cold, wet, or windy it might be!

Date:

Astronomy

Feb. 19, 2013 Rise Set
Actual Time 7:08 AM EST 6:10 PM EST
Civil Twilight 6:42 AM EST 6:36 PM EST
Nautical Twilight 6:12 AM EST 7:06 PM EST
Astronomical Twilight 5:42 AM EST 7:36 PM EST
Moon 12:45 PM EST (2/19) 2:35 AM EST (2/19)
Length of Visible Light 11h 53m
Length of Day
11h 01m
Waxing Gibbous, 67% of the Moon is Illuminated
Feb 19
Waxing Gibbous
Feb 25
Full
Mar 4
Last Quarter
Mar 11
New
Mar 19
First Quarter

Hourly Weather History & Observations

Time (EST) Temp. Windchill Dew Point Humidity Pressure Visibility Wind Dir Wind Speed Gust Speed Precip Events Conditions
12:15 AM 42.4 °F 37.0 °F 22.3 °F 45% 30.05 in 10.0 mi ENE 9.2 mph - N/A   Clear
12:35 AM 42.3 °F 36.8 °F 22.3 °F 45% 30.03 in 10.0 mi East 9.2 mph 17.3 mph N/A   Clear
12:55 AM 43.2 °F 40.5 °F 21.7 °F 43% 30.04 in 10.0 mi NE 4.6 mph - N/A   Clear
1:15 AM 43.7 °F 42.1 °F 20.8 °F 40% 30.03 in 10.0 mi SSE 3.5 mph - N/A   Clear
1:35 AM 42.1 °F - 22.1 °F 45% 30.03 in 10.0 mi Calm Calm - N/A   Clear
1:55 AM 42.1 °F 39.2 °F 21.9 °F 45% 30.02 in 10.0 mi NE 4.6 mph - N/A   Clear
2:15 AM 42.4 °F 38.8 °F 22.1 °F 44% 30.00 in 10.0 mi East 5.8 mph - N/A   Clear
2:35 AM 43.2 °F 38.4 °F 21.6 °F 42% 29.98 in 10.0 mi ESE 8.1 mph 17.3 mph N/A   Clear
2:55 AM 43.5 °F 41.9 °F 21.0 °F 41% 29.98 in 10.0 mi ESE 3.5 mph - N/A   Clear
3:15 AM 42.3 °F 37.3 °F 21.9 °F 44% 29.98 in 10.0 mi East 8.1 mph - N/A   Scattered Clouds
3:35 AM 42.4 °F - 21.2 °F 43% 29.98 in 10.0 mi Calm Calm - N/A   Mostly Cloudy
3:55 AM 43.3 °F 39.2 °F 19.4 °F 38% 29.97 in 10.0 mi South 6.9 mph - N/A   Overcast
4:15 AM 43.7 °F 40.3 °F 19.4 °F 38% 29.98 in 10.0 mi SW 5.8 mph - N/A   Overcast
4:35 AM 42.8 °F 40.1 °F 20.8 °F 42% 29.98 in 10.0 mi West 4.6 mph - N/A   Overcast
4:55 AM 42.4 °F - 21.4 °F 43% 29.98 in 10.0 mi Calm Calm - N/A   Overcast
5:15 AM 43.3 °F 36.8 °F 25.7 °F 50% 29.98 in 10.0 mi WSW 12.7 mph 23.0 mph N/A Rain Light Rain
5:35 AM 41.4 °F 38.4 °F 30.0 °F 64% 29.98 in 10.0 mi SSW 4.6 mph 13.8 mph N/A Rain Light Rain
5:55 AM 39.2 °F 34.2 °F 32.0 °F 75% 29.98 in 5.0 mi South 6.9 mph - N/A Rain Light Rain
6:15 AM 36.9 °F - 36.0 °F 97% 29.99 in 3.0 mi Calm Calm - N/A Snow Light Snow
7:15 AM 35.8 °F - 35.8 °F 100% 29.96 in 1.2 mi Calm Calm - 0.02 in Snow Light Snow
7:35 AM 36.0 °F - 36.0 °F 100% 29.94 in 3.0 mi Calm Calm - 0.02 in Rain Light Rain
7:55 AM 36.3 °F - 36.3 °F 100% 29.93 in 7.0 mi Calm Calm - 0.02 in   Overcast
8:15 AM 36.9 °F - 36.9 °F 100% 29.93 in 10.0 mi Calm Calm - N/A   Overcast
8:35 AM 37.0 °F - 37.0 °F 100% 29.91 in 10.0 mi Calm Calm - N/A   Overcast
8:55 AM 37.9 °F - 37.9 °F 100% 29.90 in 10.0 mi Calm Calm - N/A   Overcast
9:15 AM 38.3 °F - 37.6 °F 97% 29.90 in 10.0 mi Calm Calm - N/A Rain Light Rain
9:35 AM 38.7 °F - 38.3 °F 99% 29.90 in 10.0 mi Calm Calm - N/A   Overcast
9:55 AM 39.2 °F - 39.0 °F 99% 29.90 in 10.0 mi Calm Calm - N/A Rain Light Rain
10:15 AM 39.7 °F - 39.6 °F 99% 29.90 in 7.0 mi Calm Calm - N/A Rain Rain
10:35 AM 39.4 °F - 39.4 °F 100% 29.91 in 5.0 mi Calm Calm - 0.01 in Rain Light Rain
10:55 AM 39.2 °F - 39.2 °F 100% 29.90 in 5.0 mi Calm Calm - 0.01 in Rain Rain
11:15 AM 39.7 °F 35.6 °F 39.7 °F 100% 29.91 in 5.0 mi WSW 5.8 mph - 0.02 in Rain Light Rain
11:35 AM 39.7 °F 34.9 °F 39.7 °F 100% 29.90 in 3.0 mi WSW 6.9 mph - 0.03 in   Drizzle
11:55 AM 40.3 °F 33.4 °F 40.3 °F 100% 29.89 in 5.0 mi West 11.5 mph 18.4 mph 0.04 in Rain Light Rain
12:15 PM 40.8 °F 34.1 °F 40.8 °F 100% 29.87 in 7.0 mi WSW 11.5 mph 20.7 mph N/A   Overcast
12:35 PM 41.2 °F 33.0 °F 41.2 °F 100% 29.86 in 5.0 mi West 16.1 mph 25.3 mph N/A   Overcast
12:55 PM 41.4 °F 31.4 °F 41.2 °F 99% 29.85 in 7.0 mi West 24.2 mph 33.4 mph N/A Rain Light Rain
1:15 PM 41.9 °F 32.1 °F 41.4 °F 98% 29.84 in 10.0 mi West 24.2 mph 33.4 mph N/A   Overcast
1:35 PM 43.7 °F 34.3 °F 40.6 °F 89% 29.83 in 10.0 mi West 25.3 mph 34.5 mph N/A   Overcast
1:55 PM 44.6 °F 35.7 °F 38.3 °F 79% 29.82 in 10.0 mi West 24.2 mph 36.8 mph N/A   Overcast
2:15 PM 45.5 °F 37.1 °F 37.8 °F 74% 29.81 in 10.0 mi West 23.0 mph 35.7 mph N/A   Overcast
2:35 PM 45.5 °F 36.7 °F 35.4 °F 68% 29.81 in 10.0 mi WSW 25.3 mph 34.5 mph N/A   Overcast
2:55 PM 43.7 °F 35.0 °F 35.1 °F 72% 29.81 in 10.0 mi West 21.9 mph 39.1 mph N/A   Drizzle
3:15 PM 43.2 °F 35.0 °F 36.3 °F 77% 29.82 in 10.0 mi West 18.4 mph 29.9 mph N/A   Overcast
3:35 PM 43.7 °F 34.5 °F 33.1 °F 66% 29.81 in 10.0 mi West 24.2 mph 33.4 mph N/A   Overcast
3:55 PM 44.1 °F 34.2 °F 25.7 °F 49% 29.81 in 10.0 mi West 28.8 mph 43.7 mph N/A   Overcast
4:15 PM 45.3 °F 35.4 °F 23.5 °F 42% 29.82 in 10.0 mi West 32.2 mph 43.7 mph N/A   Mostly Cloudy
4:35 PM 44.4 °F 35.3 °F 22.6 °F 42% 29.83 in 10.0 mi West 25.3 mph 36.8 mph N/A   Scattered Clouds
4:55 PM 43.7 °F 34.7 °F 21.6 °F 41% 29.84 in 10.0 mi West 23.0 mph 38.0 mph N/A   Mostly Cloudy
5:15 PM 43.9 °F 33.9 °F 21.9 °F 42% 29.84 in 10.0 mi West 28.8 mph 36.8 mph N/A   Mostly Cloudy
5:35 PM 43.5 °F 34.0 °F 20.5 °F 40% 29.85 in 10.0 mi West 25.3 mph 39.1 mph N/A   Overcast
5:55 PM 43.0 °F 34.0 °F 19.4 °F 39% 29.86 in 10.0 mi West 21.9 mph 36.8 mph N/A   Overcast
6:15 PM 42.6 °F 33.1 °F 17.6 °F 37% 29.87 in 10.0 mi West 24.2 mph 31.1 mph N/A   Overcast
7:35 PM 40.1 °F 30.5 °F 14.0 °F 35% 29.91 in 10.0 mi West 20.7 mph 31.1 mph N/A   Clear
7:55 PM 39.2 °F 28.7 °F 10.6 °F 31% 29.91 in 10.0 mi West 23.0 mph 36.8 mph N/A   Clear
8:15 PM 38.7 °F 26.9 °F 9.7 °F 30% 29.91 in 10.0 mi West 28.8 mph 36.8 mph N/A   Clear
8:35 PM 38.1 °F 27.3 °F 10.6 °F 32% 29.93 in 10.0 mi West 23.0 mph 31.1 mph N/A   Clear
8:55 PM 37.4 °F 26.9 °F 11.1 °F 34% 29.93 in 10.0 mi WNW 20.7 mph 36.8 mph N/A   Clear
9:15 PM 36.9 °F 26.8 °F 12.2 °F 36% 29.94 in 10.0 mi West 18.4 mph 34.5 mph N/A   Clear
9:35 PM 36.0 °F 24.4 °F 13.5 °F 40% 29.94 in 10.0 mi WNW 23.0 mph 33.4 mph N/A   Clear
9:55 PM 35.6 °F 24.0 °F 13.8 °F 41% 29.95 in 10.0 mi West 23.0 mph 31.1 mph N/A   Clear
10:15 PM 35.1 °F 22.7 °F 12.9 °F 40% 29.95 in 10.0 mi West 25.3 mph 32.2 mph N/A   Clear
10:55 PM 34.3 °F 21.8 °F 11.1 °F 38% 29.95 in 10.0 mi West 25.3 mph 32.2 mph N/A   Clear
11:15 PM 33.8 °F 21.9 °F 11.7 °F 40% 29.96 in 10.0 mi West 21.9 mph 33.4 mph N/A   Clear
11:35 PM 33.4 °F 20.8 °F 12.9 °F 43% 29.96 in 10.0 mi West 24.2 mph 38.0 mph N/A   Clear
11:55 PM 33.1 °F 21.2 °F 14.2 °F 46% 29.96 in 10.0 mi West 20.7 mph 33.4 mph N/A   Clear